| time (UTC) | temp F | wind direction | speed knots | gust knots | rain 1hr in | rain 24hr in | rain mn in | humidity % | barometer mb |
| 20260906094546 | 69 | 360 | 1.7 | 3.5 | 0.00 | 0.52 | 0.00 | 80 | 1020.0 |
| 20260906093107 | 69 | 338 | 1.7 | 5.2 | 0.00 | 0.52 | 0.00 | 78 | 1019.9 |
| 20260906091550 | 69 | 29 | 1.7 | 5.2 | 0.00 | 0.52 | 0.00 | 78 | 1020.1 |
| 20260906090058 | 69 | 360 | 0.9 | 3.5 | 0.00 | 0.52 | 0.00 | 79 | 1020.0 |
| 20260906084554 | 69 | 345 | 0.9 | 5.2 | 0.00 | 0.52 | 0.00 | 81 | 1020.2 |
| 20260906083050 | 69 | 319 | 0.9 | 3.5 | 0.00 | 0.52 | 0.00 | 83 | 1020.1 |
| 20260906081545 | 69 | 52 | 0.9 | 2.6 | 0.00 | 0.52 | 0.00 | 82 | 1020.2 |
| 20260906080045 | 68 | 10 | 0.0 | 1.7 | 0.00 | 0.52 | 0.00 | 82 | 1019.9 |
| 20260906074559 | 69 | 21 | 0.9 | 2.6 | 0.00 | 0.52 | 0.00 | 80 | 1019.8 |
| 20260906073049 | 69 | 0 | 0.0 | 0.0 | 0.00 | 0.52 | 0.00 | 81 | 1019.8 |
| 20260906071557 | 69 | 0 | 0.0 | 0.0 | 0.00 | 0.52 | 0.00 | 81 | 1020.0 |
| 20260906070052 | 69 | 0 | 0.0 | 0.0 | 0.00 | 0.52 | 0.00 | 80 | 1020.0 |
| 20260906064549 | 69 | 0 | 0.0 | 0.0 | 0.00 | 0.52 | 0.00 | 81 | 1020.2 |
| 20260906063057 | 69 | 0 | 0.0 | 0.0 | 0.00 | 0.52 | 0.00 | 78 | 1020.3 |
| 20260906061558 | 70 | 0 | 0.0 | 1.7 | 0.00 | 0.52 | 0.00 | 79 | 1020.1 |
| 20260906060056 | 70 | 360 | 0.9 | 4.3 | 0.00 | 0.52 | 0.00 | 79 | 1020.2 |
| 20260906054557 | 69 | 360 | 1.7 | 3.5 | 0.00 | 0.52 | 0.00 | 82 | 1020.7 |
| 20260906053056 | 69 | 0 | 0.0 | 1.7 | 0.00 | 0.52 | 0.00 | 84 | 1021.1 |
| 20260906051553 | 69 | 0 | 0.0 | 1.7 | 0.00 | 0.52 | 0.00 | 83 | 1021.3 |
| 20260906050119 | 70 | 0 | 0.9 | 3.5 | 0.00 | 0.52 | 0.00 | 82 | 1021.4 |
| 20260906044546 | 70 | 360 | 0.9 | 2.6 | 0.00 | 0.52 | 0.00 | 82 | 1021.1 |
| 20260906043054 | 69 | 331 | 0.0 | 3.5 | 0.00 | 0.52 | 0.00 | 85 | 1021.2 |
| 20260906041554 | 68 | 0 | 0.0 | 0.9 | 0.00 | 0.52 | 0.00 | 86 | 1021.4 |
| 20260906040047 | 69 | 92 | 0.0 | 1.7 | 0.00 | 0.52 | 0.00 | 84 | 1021.3 |
| 20260906034553 | 69 | 0 | 0.0 | 0.9 | 0.00 | 0.52 | 0.52 | 84 | 1021.5 |
| 20260906033103 | 69 | 0 | 0.0 | 0.9 | 0.00 | 0.52 | 0.52 | 84 | 1021.6 |
| 20260906031550 | 69 | 92 | 0.0 | 0.9 | 0.00 | 0.52 | 0.52 | 83 | 1021.7 |
| 20260906030047 | 70 | 0 | 0.0 | 0.0 | 0.00 | 0.52 | 0.52 | 83 | 1021.6 |
| 20260906024601 | 70 | 0 | 0.0 | 1.7 | 0.00 | 0.52 | 0.52 | 82 | 1021.6 |
| 20260906023057 | 69 | 0 | 0.0 | 1.7 | 0.00 | 0.52 | 0.52 | 83 | 1021.6 |
| 20260906021555 | 70 | 94 | 0.9 | 2.6 | 0.00 | 0.52 | 0.52 | 82 | 1021.4 |
| 20260906020053 | 71 | 360 | 1.7 | 7.0 | 0.00 | 0.52 | 0.52 | 79 | 1021.1 |
| 20260906014601 | 71 | 11 | 2.6 | 8.7 | 0.00 | 0.52 | 0.52 | 81 | 1020.9 |
| 20260906013056 | 70 | 360 | 1.7 | 4.3 | 0.00 | 0.52 | 0.52 | 82 | 1020.8 |
| 20260906011558 | 70 | 349 | 1.7 | 7.0 | 0.00 | 0.52 | 0.52 | 81 | 1020.9 |
| 20260906010055 | 71 | 21 | 2.6 | 8.7 | 0.00 | 0.52 | 0.52 | 81 | 1020.8 |
| 20260906004551 | 70 | 329 | 2.6 | 7.0 | 0.00 | 0.52 | 0.52 | 80 | 1020.6 |
| 20260906003058 | 70 | 360 | 2.6 | 7.0 | 0.00 | 0.52 | 0.52 | 82 | 1020.3 |
| 20260906001554 | 70 | 360 | 0.9 | 3.5 | 0.00 | 0.52 | 0.52 | 84 | 1020.4 |
| 20260906000053 | 70 | 26 | 1.7 | 5.2 | 0.00 | 0.52 | 0.52 | 84 | 1020.6 |
| 20260905234604 | 69 | 360 | 1.7 | 5.2 | 0.00 | 0.52 | 0.52 | 83 | 1020.5 |
| 20260905233053 | 68 | 0 | 0.0 | 0.9 | 0.00 | 0.52 | 0.52 | 87 | 1020.6 |
| 20260905231555 | 69 | 0 | 0.0 | 3.5 | 0.00 | 0.52 | 0.52 | 86 | 1020.4 |
| 20260905230110 | 69 | 311 | 0.9 | 2.6 | 0.00 | 0.52 | 0.52 | 83 | 1020.2 |
| 20260905224554 | 69 | 360 | 0.9 | 4.3 | 0.00 | 0.52 | 0.52 | 81 | 1020.2 |
| 20260905223050 | 70 | 360 | 1.7 | 4.3 | 0.00 | 0.52 | 0.52 | 78 | 1020.2 |
| 20260905221557 | 71 | 360 | 2.6 | 7.0 | 0.00 | 0.52 | 0.52 | 78 | 1020.2 |
| 20260905220056 | 70 | 344 | 2.6 | 9.6 | 0.00 | 0.52 | 0.52 | 79 | 1020.6 |
| 20260905214558 | 70 | 360 | 2.6 | 7.8 | 0.00 | 0.52 | 0.52 | 80 | 1020.5 |
| 20260905213053 | 69 | 41 | 3.5 | 10.4 | 0.00 | 0.52 | 0.52 | 81 | 1020.6 |
| 20260905211558 | 68 | 80 | 4.3 | 8.7 | 0.00 | 0.52 | 0.52 | 81 | 1020.7 |
| 20260905210100 | 67 | 0 | 0.9 | 2.6 | 0.00 | 0.52 | 0.52 | 87 | 1020.8 |
| 20260905204555 | 65 | 0 | 0.0 | 2.6 | 0.00 | 0.52 | 0.52 | 93 | 1021.1 |
| 20260905203057 | 66 | 0 | 0.0 | 1.7 | 0.00 | 0.52 | 0.52 | 91 | 1021.0 |
| 20260905201554 | 67 | 0 | 0.0 | 0.9 | 0.02 | 0.52 | 0.52 | 88 | 1021.3 |
| 20260905200057 | 65 | 159 | 0.9 | 1.7 | 0.52 | 0.52 | 0.52 | 96 | 1021.6 |
| 20260905194555 | 64 | 159 | 0.9 | 1.7 | 0.52 | 0.52 | 0.52 | 94 | 1021.7 |
| 20260905193110 | 64 | 160 | 1.7 | 3.5 | 0.52 | 0.52 | 0.52 | 92 | 1022.4 |
| 20260905191601 | 67 | 144 | 0.9 | 7.0 | 0.51 | 0.51 | 0.51 | 86 | 1022.9 |
| 20260905190104 | 78 | 84 | 1.7 | 4.3 | 0.00 | 0.00 | 0.00 | 70 | 1022.0 |
| 20260905183059 | 79 | 360 | 0.9 | 2.6 | 0.00 | 0.03 | 0.00 | 74 | 1021.7 |
| 20260905181553 | 80 | 9 | 0.9 | 5.2 | 0.00 | 0.03 | 0.00 | 69 | 1021.9 |
| 20260905180051 | 80 | 286 | 0.9 | 3.5 | 0.00 | 0.03 | 0.00 | 70 | 1022.1 |
| 20260905174600 | 80 | 238 | 0.9 | 4.3 | 0.00 | 0.07 | 0.00 | 76 | 1022.5 |
| 20260905173052 | 79 | 360 | 0.9 | 3.5 | 0.00 | 0.07 | 0.00 | 75 | 1022.7 |
| 20260905171548 | 79 | 316 | 0.0 | 3.5 | 0.00 | 0.07 | 0.00 | 76 | 1022.7 |
| 20260905170054 | 78 | 298 | 0.9 | 3.5 | 0.00 | 0.07 | 0.00 | 78 | 1022.7 |
| 20260905164553 | 77 | 271 | 0.9 | 3.5 | 0.00 | 0.07 | 0.00 | 79 | 1023.1 |
| 20260905163101 | 77 | 267 | 0.9 | 3.5 | 0.00 | 0.07 | 0.00 | 78 | 1023.3 |
| 20260905161556 | 78 | 352 | 0.0 | 4.3 | 0.00 | 0.07 | 0.00 | 78 | 1023.1 |
| 20260905160058 | 78 | 24 | 0.9 | 3.5 | 0.00 | 0.07 | 0.00 | 77 | 1023.3 |
| 20260905154602 | 76 | 301 | 0.0 | 3.5 | 0.00 | 0.07 | 0.00 | 78 | 1023.3 |
| 20260905153056 | 76 | 301 | 0.9 | 6.1 | 0.00 | 0.07 | 0.00 | 77 | 1023.4 |
| 20260905151554 | 75 | 265 | 0.9 | 4.3 | 0.00 | 0.07 | 0.00 | 81 | 1023.5 |
| 20260905144558 | 74 | 317 | 1.7 | 5.2 | 0.00 | 0.07 | 0.00 | 80 | 1023.4 |
| 20260905143055 | 73 | 331 | 0.9 | 6.1 | 0.00 | 0.07 | 0.00 | 82 | 1023.2 |
| 20260905141550 | 73 | 309 | 1.7 | 6.1 | 0.00 | 0.07 | 0.00 | 81 | 1023.3 |
| 20260905134552 | 72 | 329 | 2.6 | 7.8 | 0.00 | 0.07 | 0.00 | 81 | 1023.4 |
| 20260905133051 | 72 | 34 | 1.7 | 8.7 | 0.00 | 0.07 | 0.00 | 81 | 1023.6 |
| 20260905131546 | 72 | 55 | 2.6 | 7.8 | 0.00 | 0.07 | 0.00 | 81 | 1023.4 |
| 20260905130053 | 72 | 45 | 3.5 | 8.7 | 0.00 | 0.07 | 0.00 | 82 | 1023.3 |
| 20260905124554 | 71 | 360 | 2.6 | 7.8 | 0.00 | 0.07 | 0.00 | 83 | 1023.3 |
| 20260905123050 | 71 | 64 | 2.6 | 7.8 | 0.00 | 0.07 | 0.00 | 82 | 1023.2 |
| 20260905121601 | 71 | 360 | 2.6 | 6.1 | 0.00 | 0.07 | 0.00 | 81 | 1023.0 |
| 20260905120054 | 71 | 34 | 3.5 | 9.6 | 0.00 | 0.07 | 0.00 | 81 | 1023.0 |
| 20260905114549 | 71 | 17 | 1.7 | 7.8 | 0.00 | 0.07 | 0.00 | 83 | 1022.8 |
| 20260905113104 | 70 | 360 | 1.7 | 7.0 | 0.00 | 0.07 | 0.00 | 83 | 1022.6 |
| 20260905111552 | 70 | 278 | 0.9 | 4.3 | 0.00 | 0.07 | 0.00 | 83 | 1022.4 |
| 20260905110052 | 69 | 279 | 0.0 | 5.2 | 0.00 | 0.07 | 0.00 | 83 | 1022.4 |
| 20260905104548 | 70 | 337 | 0.9 | 3.5 | 0.00 | 0.07 | 0.00 | 83 | 1022.2 |
| 20260905103059 | 70 | 360 | 0.9 | 4.3 | 0.00 | 0.07 | 0.00 | 80 | 1022.2 |
| 20260905101554 | 70 | 321 | 1.7 | 7.0 | 0.00 | 0.07 | 0.00 | 80 | 1022.1 |
| 20260905100057 | 70 | 19 | 2.6 | 6.1 | 0.00 | 0.07 | 0.00 | 80 | 1022.1 |